Probability
0 0 0 0 0 0 0 0 0 0 0 0 0 0 0 0 0 0 0 0 1 2 5 8 7 5 4 3 3 3 2 1 0 0 0 0 0 0 0 0 0 0 1 1
0 0 0 0 0 0 0 0 0 0 0 0 0 0 0 0 0 0 0 0 0 1 4 6 6 5 4 3 3 3 3 1 0 0 0 0 0 0 0 0 0 0 0 1
0 0 0 0 0 0 0 0 0 0 0 0 0 0 0 0 0 0 0 0 0 1 2 4 4 5 4 4 3 3 2 1 0 0 0 0 0 0 0 0 0 1 1 0
0 0 0 0 0 0 0 0 0 0 0 0 0 0 0 0 0 0 0 0 0 0 1 3 4 5 5 4 2 1 1 1 0 0 0 0 0 0 0 0 0 1 2 1
0 0 0 0 0 0 0 0 0 0 0 0 0 0 0 0 0 0 0 0 0 0 2 4 5 5 4 2 1 0 0 0 0 0 0 0 0 0 0 0 1 2 2 1
0 0 0 0 0 0 0 0 0 0 0 0 0 0 0 0 0 0 0 0 0 0 2 4 5 4 2 0 0 0 0 0 0 0 0 0 0 0 0 0 1 2 2 1
0 0 0 0 0 0 0 0 0 0 0 0 0 0 0 0 0 0 0 0 0 0 1 3 4 3 1 0 0 0 0 0 0 0 0 0 0 0 0 0 1 1 1 1
0 0 0 0 0 0 0 0 0 0 0 0 0 0 0 0 0 0 0 0 0 0 1 2 3 2 1 0 0 0 0 0 1 1 1 0 0 0 0 0 1 1 1 1
0 0 0 0 0 0 0 0 0 0 0 0 0 0 0 0 0 0 0 0 0 0 1 1 1 1 1 1 0 0 0 1 3 3 2 1 0 0 0 0 1 1 1 2
0 0 0 0 0 0 0 0 0 0 0 0 0 0 0 0 0 0 0 0 0 0 0 1 0 0 0 0 0 0 1 2 3 3 3 2 1 0 0 0 0 1 1 2
0 0 0 0 0 0 0 0 0 0 0 0 0 0 0 0 0 0 1 1 0 0 1 1 0 0 0 0 0 1 2 3 3 3 3 3 2 1 0 0 0 1 2 2
0 0 0 0 0 0 0 0 0 0 0 0 0 0 0 0 0 0 1 1 0 1 2 1 0 0 0 0 0 1 2 3 3 3 3 3 2 1 0 0 0 1 1 1
0 0 0 0 0 0 0 0 0 0 0 0 0 0 0 0 0 0 0 0 1 2 2 1 0 0 0 0 0 1 1 1 2 2 2 2 1 0 0 0 0 0 0 0
0 0 0 0 0 0 0 0 0 0 0 0 0 0 0 0 0 0 0 0 1 2 1 0 0 0 0 0 0 0 0 0 1 1 1 1 0 0 0 0 0 0 0 0
0 0 0 0 0 0 0 0 0 0 0 0 0 0 0 0 0 0 0 1 1 1 1 0 0 0 0 0 0 0 0 0 0 0 0 0 0 0 0 0 0 0 0 0
0 0 0 0 0 0 0 0 0 0 0 0 0 0 0 0 0 0 0 1 1 1 0 0 0 0 0 0 0 0 0 0 0 0 0 0 0 0 0 0 0 0 0 0
0 0 0 0 0 0 0 0 0 0 0 0 0 0 0 0 0 0 0 1 1 0 0 0 0 0 0 1 1 0 0 0 0 0 0 0 0 0 0 0 0 0 0 0
0 0 0 0 0 0 0 0 0 0 0 0 0 0 0 0 0 0 0 0 0 0 0 0 0 0 0 1 1 1 0 0 0 0 0 0 0 0 0 0 0 0 0 0
0 0 0 0 0 0 0 0 0 0 0 0 0 0 0 0 0 0 0 0 0 0 0 0 0 0 0 1 1 1 1 0 0 0 0 0 0 0 0 0 0 0 0 0
0 0 0 0 0 0 0 0 0 0 0 0 0 0 0 0 0 0 0 0 0 0 0 0 0 0 0 0 0 0 1 1 0 0 0 0 0 0 0 0 0 0 0 0
0 0 0 0 0 0 0 0 0 0 0 0 0 0 0 0 0 0 0 0 0 0 0 0 0 0 0 0 0 0 0 0 0 0 0 0 0 0 0 0 0 0 0 0
0 0 0 0 0 0 0 0 0 0 0 0 0 0 0 0 0 0 0 0 0 0 0 0 0 0 0 0 0 0 0 0 0 0 0 0 0 0 0 0 0 0 0 0
0 0 0 0 0 0 0 0 0 0 0 0 0 0 0 0 0 0 0 0 0 0 0 0 0 0 0 0 0 0 0 0 0 0 0 0 0 0 0 0 0 0 0 0
0 0 0 0 0 0 0 0 0 0 0 0 0 0 0 0 0 0 0 0 0 0 0 0 0 0 0 0 0 0 0 0 0 0 0 0 0 0 0 0 0 0 0 0
0 0 0 0 0 0 0 0 0 0 0 0 0 0 0 0 0 0 0 0 0 0 0 0 0 0 0 0 0 0 0 0 0 0 0 0 0 0 0 0 0 0 0 0
0 0 0 0 0 0 0 0 0 0 0 0 0 0 0 0 0 0 0 0 0 0 0 0 0 0 0 0 0 0 0 0 0 0 0 0 0 0 0 0 0 0 0 0
0 0 0 0 0 0 0 0 0 0 0 0 0 0 0 0 0 0 0 0 0 0 0 0 0 0 0 0 0 0 0 0 0 0 0 0 0 0 0 0 0 0 0 0
Wind_Speed
5 5 5 7 8 9 11 10 10 8 8 6 5 4 3 2 3 4 4 4 5 5 5 5 5 5 4 4 4 4 5 4 4 4 4 4 4 4 4 4 4 3 3 3
6 6 7 9 10 11 12 11 11 10 10 6 5 4 3 3 4 4 4 4 4 5 5 6 5 5 5 5 4 5 5 4 4 4 4 4 4 4 4 4 4 4 4 4
7 5 7 10 9 11 10 9 10 11 8 5 5 5 5 5 5 5 5 4 5 5 5 5 5 5 5 5 4 4 4 4 4 4 4 4 3 3 3 4 4 4 4 4
6 7 11 2 1 4 6 6 7 7 6 6 6 6 5 4 4 5 5 5 5 4 4 4 4 4 4 4 5 4 4 4 4 4 4 4 3 3 4 4 4 3 4 4
6 8 8 5 4 5 7 6 4 5 4 4 4 5 5 3 3 4 4 4 4 4 4 4 4 4 4 4 4 4 4 4 4 5 4 4 4 4 3 3 3 3 3 4
8 9 8 3 2 3 6 6 2 3 3 2 4 6 3 2 3 4 3 3 3 3 4 4 4 4 5 5 4 4 4 4 4 4 4 4 4 4 3 3 3 3 3 3
11 10 7 1 2 5 8 2 3 3 3 4 5 3 2 1 2 3 2 3 3 4 4 3 4 4 5 4 4 3 3 3 3 4 4 4 3 3 3 3 3 3 3 3
9 11 7 4 5 6 2 1 2 3 3 4 4 2 1 1 1 2 2 3 4 4 4 4 4 4 4 3 2 2 3 3 4 3 3 3 4 3 3 3 4 4 3 3
6 4 1 2 3 2 2 2 3 3 3 4 4 3 3 2 2 2 3 4 4 5 4 4 4 4 4 3 3 3 4 4 4 4 3 3 4 4 3 3 3 3 3 3
6 6 4 4 4 3 3 4 4 3 3 4 5 4 4 3 2 2 3 3 4 5 5 5 4 4 4 3 3 4 4 4 4 4 3 3 2 3 3 3 3 4 3 3
8 6 5 6 5 4 4 4 4 4 5 5 5 5 5 4 4 3 3 3 4 5 5 5 5 4 4 3 4 4 4 4 4 3 3 3 2 2 3 3 2 3 3 3
7 5 6 6 5 5 5 5 5 5 5 5 5 5 5 4 4 4 4 4 4 4 5 5 5 4 4 4 4 4 3 3 3 3 3 3 2 2 1 0 1 1 1 2
8 8 7 7 7 7 7 6 6 6 6 5 5 5 5 4 4 3 3 4 4 4 5 5 4 4 3 4 4 4 3 3 2 3 3 3 3 3 2 1 1 2 3 3
7 7 8 8 8 8 7 7 6 6 6 5 4 4 4 3 3 3 4 4 4 4 4 4 4 3 3 4 4 4 3 3 3 3 3 3 3 3 3 3 3 2 3 5
8 8 8 7 7 6 6 6 6 5 5 4 4 4 4 4 4 3 3 3 4 4 4 4 4 3 3 4 4 4 3 2 2 2 3 3 4 4 4 4 4 3 3 3
7 7 7 7 7 6 6 7 7 6 5 5 4 4 4 4 3 3 3 3 4 4 4 3 3 3 3 4 4 3 3 3 3 3 3 4 4 4 4 4 4 4 4 3
6 6 6 7 7 7 7 7 7 6 5 5 5 3 3 3 3 3 2 3 4 4 3 3 3 3 4 4 4 3 3 3 4 4 4 4 4 4 5 5 5 4 4 4
8 8 8 8 7 6 6 6 5 5 5 5 4 4 4 4 4 3 3 3 3 3 3 3 3 3 3 3 3 3 3 3 4 4 4 4 4 4 4 5 5 6 4 4
6 7 7 6 6 5 4 4 4 4 4 4 5 5 4 4 3 3 3 3 3 3 3 2 2 3 3 3 3 3 3 4 4 4 4 4 4 5 4 5 5 5 4 4
4 4 4 4 4 4 3 3 3 3 3 4 4 4 4 4 3 3 4 4 3 3 2 2 3 3 3 3 3 3 3 4 4 4 4 4 4 4 4 4 5 5 5 5
3 2 2 2 2 3 3 3 3 3 3 4 5 5 4 4 4 4 4 4 3 3 2 3 3 3 3 3 3 3 3 4 4 4 4 4 4 4 5 5 5 5 4 4
2 2 2 1 1 2 2 2 2 3 3 3 4 4 4 4 4 4 4 4 3 2 3 3 3 3 3 3 3 3 3 4 4 4 4 4 4 4 5 5 5 5 5 5
2 2 2 2 2 2 2 2 2 2 3 3 3 3 4 3 3 3 3 2 2 2 3 3 2 3 4 3 3 3 4 4 4 4 4 4 4 4 4 5 5 5 5 5
2 2 2 2 1 2 2 2 2 2 2 3 3 3 3 3 3 3 3 2 2 3 3 2 3 4 4 3 3 4 4 4 4 4 4 4 4 4 4 4 4 4 4 5
2 2 2 2 2 2 3 3 3 3 3 3 3 3 3 3 3 3 3 3 3 3 3 3 4 4 4 3 4 4 4 4 4 3 4 4 4 4 4 4 4 5 5 5
3 3 3 3 3 3 3 3 3 3 3 3 3 2 2 2 3 3 3 3 4 3 3 3 3 3 3 3 4 4 4 3 4 4 4 4 5 5 5 5 6 5 5 5
3 3 2 3 3 3 3 3 3 3 3 3 3 3 3 3 3 3 3 3 3 3 3 3 3 3 3 3 4 4 4 4 4 4 4 4 4 5 5 6 5 5 5 5
Wind_Direction
260 263 247 248 239 227 233 248 256 255 253 250 249 245 238 213 189 173 175 175 176 180 178 179 180 181 179 176 176 177 179 186 192 186 178 186 185 193 193 190 197 195 193 192
239 227 232 246 246 239 241 246 249 253 257 261 259 237 226 205 191 185 187 193 193 191 185 184 183 182 181 183 183 182 183 187 180 180 173 181 185 189 189 193 198 193 200 199
244 224 241 246 242 234 231 234 237 248 257 253 245 232 227 215 201 202 203 201 198 198 192 189 187 186 184 187 185 185 186 183 181 182 176 179 178 178 185 192 191 196 198 196
248 231 243 248 126 224 228 240 249 257 263 255 249 242 231 231 221 215 209 205 201 195 189 192 185 182 180 179 183 186 185 182 179 182 179 177 179 186 199 195 185 194 196 198
237 244 253 245 226 224 229 238 251 250 256 262 249 228 210 218 235 231 221 208 199 191 184 179 175 176 177 176 180 185 189 190 183 183 180 181 183 189 192 191 187 192 193 196
231 242 247 233 176 219 238 233 194 234 240 231 220 229 216 234 245 233 216 195 187 179 174 170 165 173 182 183 184 189 194 195 188 184 181 187 192 189 182 187 190 189 186 197
232 242 250 235 154 197 229 243 139 210 222 210 225 279 333 284 238 227 204 182 173 168 167 167 163 170 181 183 189 188 184 181 182 180 181 182 183 186 186 184 184 192 188 192
227 236 237 135 177 215 280 21 204 224 229 232 248 283 287 262 228 212 193 179 170 169 168 165 164 172 179 186 188 177 173 175 179 178 178 178 177 186 190 185 189 196 201 195
234 245 9 190 227 277 295 253 246 244 239 233 241 255 258 253 237 214 196 180 177 175 173 172 175 184 186 175 169 177 177 180 181 179 179 187 187 187 191 195 202 206 208 210
246 243 241 238 242 257 258 261 267 268 261 251 250 251 247 245 236 222 211 186 185 185 184 186 185 192 191 170 175 181 183 184 184 180 181 185 195 200 200 204 209 211 214 220
247 248 252 247 246 251 255 258 254 253 251 253 256 253 248 244 239 232 221 201 195 198 196 195 188 187 183 174 183 189 188 186 188 183 183 189 190 210 220 217 228 225 224 226
247 247 253 258 256 259 253 253 248 246 249 252 248 247 248 243 237 232 222 209 202 200 201 198 189 182 177 178 190 195 195 191 190 189 188 193 186 166 61 245 120 190 276 254
270 273 275 270 261 255 253 254 251 246 244 244 245 243 245 245 238 230 218 213 207 202 203 198 191 185 182 187 196 200 205 202 198 199 198 200 200 197 194 176 167 202 212 218
263 263 263 259 260 259 257 254 250 243 239 239 243 244 241 237 235 231 225 221 211 203 201 196 193 194 190 192 198 203 205 203 209 210 211 209 209 212 216 217 216 216 202 203
260 260 260 264 262 259 255 244 237 234 232 233 233 232 228 227 229 233 231 216 204 201 202 197 195 199 191 192 198 204 205 206 216 220 218 215 215 216 220 227 230 227 218 194
265 265 260 258 259 253 248 242 236 234 230 230 229 226 227 230 231 230 226 211 206 206 207 206 204 200 194 196 199 206 208 201 215 222 221 219 219 220 222 225 229 231 230 222
254 260 261 257 256 255 252 249 244 236 227 221 224 219 212 214 218 220 229 229 219 214 211 212 212 206 206 207 210 213 209 201 205 220 225 226 227 228 227 229 232 235 237 229
254 256 259 258 258 259 258 254 239 230 224 217 212 205 204 211 215 217 224 232 226 216 224 226 216 209 211 215 222 223 218 216 219 224 227 230 234 236 237 236 235 237 238 225
262 263 261 262 263 258 251 247 236 223 212 205 204 206 211 222 227 223 223 226 230 226 228 223 203 209 216 223 231 225 222 220 227 228 229 224 230 236 238 240 241 241 240 237
261 262 261 259 257 250 243 236 231 216 204 201 206 209 214 220 224 223 226 231 237 248 237 210 206 215 221 216 220 231 224 221 222 225 228 228 233 237 240 241 242 243 242 241
252 251 255 255 249 243 237 231 225 224 218 211 215 219 221 223 222 221 224 236 244 252 234 206 220 224 219 213 213 231 229 227 227 225 228 232 236 239 240 239 241 244 246 248
252 246 256 258 248 245 240 233 226 222 220 223 225 222 220 223 221 224 230 243 247 231 228 223 225 219 209 214 221 226 228 230 234 232 233 235 237 241 243 243 244 247 250 253
265 265 265 263 257 256 252 244 238 228 224 228 231 228 228 229 228 231 241 247 243 233 239 233 213 198 205 222 224 225 229 233 236 236 237 240 242 244 246 248 250 251 253 255
272 275 277 273 263 251 257 261 254 243 240 241 242 242 240 234 234 242 256 234 228 236 242 216 196 208 224 233 230 231 233 237 239 241 243 245 246 249 253 257 261 263 262 261
271 270 264 256 253 256 263 265 254 244 243 245 245 240 241 244 248 249 246 236 222 229 239 219 211 219 230 236 234 235 237 240 243 244 243 247 251 253 254 257 262 262 261 261
268 271 265 257 256 257 255 250 246 242 238 241 247 246 247 249 249 247 247 241 236 241 250 242 227 226 236 239 240 241 242 241 241 242 245 250 253 254 256 257 259 260 263 264
268 267 263 257 252 248 248 247 245 243 240 241 248 249 248 250 245 241 243 242 238 238 243 243 239 239 241 242 242 241 242 243 245 247 249 251 253 254 256 258 260 260 261 263